Poughkeepsie, NY

5:11 PM EDT on July 26, 2017 (GMT -0400)
Dutchess County

Weather History for KPOU - February, 2015

Change the Weather History Date:

Sunday, February 1, 2015

  Actual Average Record
Temperature  
Mean Temperature 19 °F 26 °F  
Max Temperature 35 °F 37 °F 66 °F (1989)
Min Temperature 2 °F 16 °F -8 °F (1961)
Degree Days  
Heating Degree Days 46 39  
Month to date heating degree days 46 39  
Since 1 July heating degree days 3357 3591  
Cooling Degree Days 0 0  
Month to date cooling degree days 0 0  
Year to date cooling degree days 0 0  
Moisture  
Dew Point 14 °F    
Average Humidity 62    
Maximum Humidity 79    
Minimum Humidity 44    
Precipitation  
Precipitation 0.02 in 0.09 in 1.14 in (2008)
Month to date precipitation 0.02 0.09  
Year to date precipitation 2.96 3.17  
Sea Level Pressure  
Sea Level Pressure 30.11 in    
Wind  
Wind Speed 3 mph (West)    
Max Wind Speed 10 mph    
Max Gust Speed 13 mph    
Visibility 8 miles    
Events Snow    
T = Trace of Precipitation, MM = Missing Value Source: NWS Daily Summary

Daily Weather History Graph

Daily Weather History Graph

Search for Another Location

Airport or City:

Trip Planner

Search our weather history database for the weather conditions in past years. The results will help you decide how hot, cold, wet, or windy it might be!

Date:

Astronomy

Feb. 01, 2015 Rise Set
Actual Time 7:07 AM EST 5:10 PM EST
Civil Twilight 6:38 AM EST 5:40 PM EST
Nautical Twilight 6:05 AM EST 6:13 PM EST
Astronomical Twilight 5:32 AM EST 6:46 PM EST
Moon 3:26 PM EST (2/1) 5:14 AM EST (2/1)
Length of Visible Light 11h 02m
Length of Day
10h 03m
Waxing Gibbous, 95% of the Moon is Illuminated
Feb 1
Waxing Gibbous
Feb 3
Full
Feb 11
Last Quarter
Feb 18
New
Feb 25
First Quarter

Hourly Weather History & Observations

Time (EST) Temp. Windchill Dew Point Humidity Pressure Visibility Wind Dir Wind Speed Gust Speed Precip Events Conditions
12:53 AM 3.9 °F - -2.9 °F 73% 30.16 in 10.0 mi Calm Calm - N/A   Clear
1:53 AM 3.9 °F - -4.0 °F 70% 30.17 in 9.0 mi Calm Calm - N/A   Mostly Cloudy
2:53 AM 10.9 °F - 1.9 °F 67% 30.16 in 10.0 mi Calm Calm - N/A   Overcast
3:53 AM 18.0 °F 11.1 °F 6.1 °F 60% 30.15 in 10.0 mi SSW 4.6 mph - N/A   Partly Cloudy
4:53 AM 19.0 °F - 7.0 °F 59% 30.15 in 10.0 mi Calm Calm - N/A   Mostly Cloudy
5:53 AM 19.0 °F 11.1 °F 8.1 °F 62% 30.16 in 10.0 mi SSW 5.8 mph - N/A   Clear
6:53 AM 19.9 °F 12.1 °F 9.0 °F 62% 30.16 in 10.0 mi SSW 5.8 mph - N/A   Mostly Cloudy
7:53 AM 21.9 °F 17.2 °F 10.0 °F 60% 30.18 in 10.0 mi SSW 3.5 mph - N/A   Overcast
8:53 AM 25.0 °F 18.1 °F 12.9 °F 60% 30.19 in 10.0 mi SW 5.8 mph - N/A   Overcast
9:53 AM 28.0 °F 22.8 °F 16.0 °F 61% 30.18 in 10.0 mi SW 4.6 mph - N/A   Mostly Cloudy
10:53 AM 30.9 °F 26.2 °F 17.1 °F 57% 30.18 in 10.0 mi SSW 4.6 mph - N/A   Clear
11:53 AM 34.0 °F - 18.0 °F 52% 30.16 in 10.0 mi Calm Calm - N/A   Scattered Clouds
12:53 PM 34.0 °F 31.0 °F 19.0 °F 54% 30.14 in 10.0 mi West 3.5 mph - N/A   Overcast
1:53 PM 35.1 °F - 17.1 °F 48% 30.12 in 10.0 mi Calm Calm - N/A   Overcast
2:53 PM 35.1 °F 31.0 °F 19.0 °F 52% 30.12 in 10.0 mi NE 4.6 mph - N/A   Overcast
3:53 PM 35.1 °F 31.0 °F 16.0 °F 46% 30.12 in 10.0 mi West 4.6 mph - N/A   Mostly Cloudy
4:53 PM 33.1 °F 28.7 °F 16.0 °F 50% 30.11 in 10.0 mi West 4.6 mph - N/A   Partly Cloudy
5:53 PM 30.9 °F - 16.0 °F 54% 30.10 in 10.0 mi Calm Calm - N/A   Clear
6:53 PM 30.0 °F - 18.0 °F 61% 30.11 in 10.0 mi Calm Calm - N/A   Overcast
7:53 PM 28.9 °F - 19.0 °F 67% 30.09 in 10.0 mi Calm Calm - N/A   Overcast
8:53 PM 30.0 °F - 19.0 °F 64% 30.07 in 10.0 mi Calm Calm - N/A   Overcast
9:53 PM 28.9 °F - 19.0 °F 67% 30.05 in 9.0 mi Calm Calm - N/A   Overcast
10:53 PM 28.0 °F 24.2 °F 19.0 °F 69% 30.02 in 5.0 mi North 3.5 mph - 0.00 in Snow Light Snow
11:12 PM 28.0 °F 21.7 °F 18.0 °F 66% 30.02 in 1.8 mi North 5.8 mph - 0.00 in Snow Light Snow
11:19 PM 27.0 °F 21.6 °F 19.0 °F 72% 30.01 in 1.2 mi North 4.6 mph - 0.00 in Snow Light Snow
11:36 PM 26.1 °F 20.5 °F 19.9 °F 78% 30.01 in 0.8 mi North 4.6 mph - 0.01 in Snow Light Snow
11:53 PM 25.0 °F 19.3 °F 21.0 °F 85% 29.99 in 0.8 mi North 4.6 mph - 0.02 in Snow Light Snow